Location: St. Louis
(38.6270°N, 90.1994°W)
Time: 17:21:54
(UTC-06:00)

Courier 1B - Pass Details

Date: 29 November 2021
Orbit: 962 x 1209 km, 28.3° (Epoch: 26 January)

Event Time Altitude Azimuth Distance (km) Brightness Sun altitude
Rises 19:11:39 0° 244° (WSW) 3,885 11.7 -29.0°
Reaches altitude 10° 19:14:45 10° 235° (SW) 2,888 10.7 -29.6°
Enters shadow 19:20:52 33° 174° (S) 1,646 8.6 -30.8°
